Flag for Marshall Islands Weather past 2 weeks in Kwajalein, Marshall Islands

Now
86 °F

Scattered clouds.


Feels Like: 94 °F
Forecast: 81 / 85 °F
Wind: 25 mph from Northeast

Location: Kwajalein / Bucholz

Current Time: Dec 23, 2014 at 12:11:36 PM

Latest Report: Dec 23, 2014 at 11:20 AM


Visibility: 10 mi

Pressure: 29.82 "Hg

Humidity: 64%

Dew point: 73 °F

Location of KwajaleinLocation

Historic Weather in Kwajalein — Graph

°F

Kwajalein temperature yesterday

Maximum temperature yesterday: 87 °F (at 2:20 PM)
Minimum temperature yesterday: 81 °F (at 7:40 AM)
Average temperature yesterday: 83 °F

Past Weeks' High & Low Weather Summary

 TemperatureHumidityPressure
High88 °F (Dec 8, 12:00 PM)91% (Dec 12, 3:20 AM)29.90 "Hg (Dec 12, 3:20 AM)
Low78 °F (Dec 12, 3:20 AM)58% (Dec 17, 2:20 PM)29.71 "Hg (Dec 22, 3:00 PM)
Average83 °F74%29.82 "Hg
* Reported Dec 8 10:00 AM — Dec 23 10:20 AM, Kwajalein, Weather by CustomWeather, © 2014

Note: Actual official high and low records may vary slightly from our data, if they occured in-between our weather recording intervals... More about our weather records

Advertising

Kwajalein weather history for previous 24 hours

 ConditionsComfort  
Time TempWeatherWind HumidityBarometerVisibility
10:20 AM
Dec 23
85 °FScattered clouds.28 mph70%29.83 "Hg7 mi
10:00 AM84 °FScattered clouds.25 mph72%29.82 "Hg7 mi
9:20 AM82 °FBroken clouds.28 mph77%29.82 "Hg5 mi
9:00 AM81 °FBroken clouds.28 mph79%29.82 "Hg7 mi
8:40 AM81 °FBroken clouds.31 mph79%29.81 "Hg7 mi
8:20 AM81 °FCloudy.25 mph80%29.80 "Hg4 mi
8:00 AM81 °FCloudy.35 mph79%29.79 "Hg7 mi
7:20 AM82 °FBroken clouds.28 mph77%29.77 "Hg7 mi
7:00 AM82 °FDrizzle. Broken clouds.30 mph77%29.76 "Hg5 mi
6:40 AM82 °FPassing clouds.24 mph76%29.75 "Hg10 mi
6:20 AM82 °FPassing clouds.28 mph76%29.75 "Hg10 mi
6:00 AM82 °FPassing clouds.29 mph77%29.75 "Hg10 mi
5:40 AM81 °FPassing clouds.30 mph79%29.74 "Hg10 mi
5:20 AM82 °FPassing clouds.30 mph79%29.73 "Hg10 mi
5:00 AM82 °FPassing clouds.30 mph80%29.73 "Hg10 mi
4:40 AM82 °FPassing clouds.23 mph80%29.73 "Hg10 mi
4:20 AM81 °FLight rain. Partly cloudy.23 mph81%29.73 "Hg7 mi
4:00 AM81 °FPassing clouds.25 mph81%29.73 "Hg10 mi
3:40 AM81 °FPassing clouds.23 mph82%29.73 "Hg10 mi
3:20 AM81 °FPassing clouds.25 mph82%29.73 "Hg10 mi
3:00 AM81 °FHeavy rain. Partly cloudy.21 mph82%29.74 "Hg5 mi
2:40 AM81 °FLight rain. Partly cloudy.21 mph79%N/A4 mi
2:20 AM82 °FPartly cloudy.21 mph77%29.76 "Hg7 mi
2:00 AM82 °FPartly cloudy.18 mph76%29.77 "Hg10 mi
1:40 AM83 °FPassing clouds.21 mph74%29.78 "Hg10 mi
1:20 AM83 °FPartly cloudy.23 mph74%29.78 "Hg7 mi
1:00 AM83 °FPassing clouds.22 mph74%29.79 "Hg10 mi
12:40 AM83 °FPassing clouds.25 mph74%29.79 "Hg10 mi
12:20 AM83 °FClear.24 mph75%29.80 "Hg10 mi
12:00 AM83 °FClear.23 mph75%29.79 "Hg10 mi
11:40 PM
Dec 22
83 °FClear.23 mph74%29.80 "Hg10 mi
11:20 PM83 °FClear.23 mph73%29.80 "Hg10 mi
11:00 PM83 °FPassing clouds.20 mph72%29.79 "Hg10 mi
10:40 PM83 °FClear.23 mph72%29.80 "Hg10 mi
10:20 PM83 °FClear.23 mph71%29.80 "Hg10 mi
10:00 PM83 °FPassing clouds.26 mph71%29.80 "Hg10 mi
9:40 PM83 °FPassing clouds.22 mph71%29.80 "Hg10 mi
9:20 PM83 °FPassing clouds.26 mph72%29.80 "Hg10 mi
9:00 PM83 °FPartly cloudy.25 mph72%29.79 "Hg10 mi
8:20 PM83 °FOvercast.25 mph72%29.78 "Hg10 mi
8:00 PM83 °FOvercast.23 mph72%29.77 "Hg10 mi
7:40 PM83 °FPassing clouds.24 mph71%29.77 "Hg10 mi
7:20 PM83 °FPassing clouds.26 mph70%29.76 "Hg10 mi
7:00 PM83 °FPassing clouds.28 mph71%29.75 "Hg10 mi
6:40 PM83 °FPartly cloudy.26 mph70%29.75 "Hg10 mi
6:20 PM83 °FScattered clouds.28 mph70%29.74 "Hg10 mi
6:00 PM84 °FScattered clouds.25 mph69%29.74 "Hg10 mi
5:20 PM84 °FCloudy.23 mph67%29.72 "Hg7 mi
5:00 PM85 °FCloudy.24 mph66%29.72 "Hg10 mi
4:40 PM85 °FCloudy.28 mph66%29.72 "Hg10 mi
4:20 PM85 °FCloudy.26 mph66%29.71 "Hg10 mi
3:20 PM86 °FBroken clouds.25 mph63%29.71 "Hg10 mi
3:00 PM87 °FScattered clouds.25 mph63%29.71 "Hg10 mi
2:40 PM87 °FScattered clouds.24 mph64%29.72 "Hg10 mi
2:20 PM87 °FScattered clouds.25 mph64%29.72 "Hg10 mi
2:00 PM86 °FScattered clouds.24 mph66%29.72 "Hg10 mi
1:20 PM86 °FScattered clouds.25 mph67%29.74 "Hg10 mi
1:00 PM86 °FScattered clouds.25 mph67%29.75 "Hg10 mi
12:20 PM86 °FBroken clouds.24 mph67%29.77 "Hg7 mi
12:00 PM86 °FBroken clouds.26 mph65%29.78 "Hg10 mi
Weather by CustomWeather, © 2014

See weather overviewHow to use our weather pages